Temperature
27 28 28 28 29 29 29 29 29 29 29 29 29 29 29 28 28 28 27 26 25 25 24 23 22 22 22 21 21 21 20 20 20 20 19 19 19 19 19 18 17 17 16 16
28 28 28 28 28 28 28 28 29 29 29 29 29 29 30 29 28 27 27 26 26 25 23 22 22 22 22 21 21 21 21 20 20 20 20 20 20 19 18 18 17 16 16 16
28 28 28 28 28 28 28 28 28 28 28 29 28 28 29 29 28 27 26 26 25 25 24 23 22 22 22 21 21 21 20 20 20 20 19 19 19 19 18 18 17 16 16 16
28 29 28 28 28 28 28 28 28 27 27 28 28 27 29 29 28 27 26 25 25 24 24 23 23 22 22 21 21 20 20 20 20 20 19 19 19 19 19 18 17 16 16 15
28 28 28 28 28 28 28 28 28 27 27 27 27 27 28 27 27 26 25 24 23 22 21 21 21 20 20 20 20 19 19 19 19 19 19 19 19 18 18 17 17 17 15 15
28 29 28 28 29 28 28 27 27 27 27 26 26 26 26 25 23 24 23 21 19 18 18 18 18 18 19 19 19 19 19 19 19 19 19 19 18 18 18 17 16 16 15 15
28 28 29 29 28 28 28 27 26 26 26 26 27 26 24 21 21 21 20 18 17 16 16 15 16 16 17 17 18 18 18 18 18 18 18 18 18 18 17 17 16 16 15 15
26 27 28 28 28 27 27 26 25 25 25 26 27 26 22 20 19 18 17 17 16 15 15 14 14 14 14 14 15 15 16 16 16 16 17 17 17 17 16 16 16 15 15 15
27 27 28 28 27 27 26 27 27 26 26 25 26 25 21 20 19 18 17 16 15 15 14 14 13 13 13 13 13 13 14 14 14 15 15 16 16 16 16 16 16 15 15 15
27 26 28 28 27 26 26 26 26 25 24 24 25 25 25 20 19 18 17 16 15 15 14 14 13 13 12 12 12 12 12 13 13 14 14 14 14 15 15 15 15 15 15 15
27 26 27 27 26 26 26 26 25 26 25 24 24 25 20 18 17 17 16 15 15 14 14 14 13 12 12 12 11 11 11 12 12 12 13 13 13 14 14 14 14 14 14 14
26 26 26 27 27 26 26 25 25 24 24 24 24 23 17 17 16 16 15 15 14 14 14 13 13 12 11 11 11 11 10 11 11 11 11 11 12 12 12 13 13 13 13 14
26 25 25 26 26 25 25 25 25 25 24 24 23 22 16 16 15 15 14 14 13 13 13 12 12 11 11 10 10 10 10 10 10 10 10 10 10 10 11 11 12 12 13 13
24 25 25 24 25 25 25 25 24 24 23 23 23 20 16 15 15 14 13 12 11 11 11 10 10 10 10 9 9 9 9 9 9 9 9 9 9 9 10 10 11 11 12 12
24 25 25 25 26 25 24 23 23 22 22 21 20 19 16 14 14 12 12 11 10 10 10 10 10 10 10 9 9 9 9 9 9 8 8 8 9 9 9 9 10 10 11 11
23 24 24 25 25 24 22 21 20 20 19 19 18 16 15 13 12 12 11 11 11 11 12 11 11 11 10 10 10 9 9 9 8 8 8 8 8 8 8 9 9 9 10 10
24 23 23 24 25 23 21 17 18 18 17 17 16 15 14 14 13 13 13 13 12 12 12 11 11 11 10 10 10 9 9 9 9 8 8 8 8 8 8 9 9 9 9 10
22 22 23 24 23 21 16 17 17 16 16 16 15 15 15 14 14 13 13 13 12 12 11 11 10 10 10 10 10 9 9 9 9 8 8 8 8 9 9 9 9 9 9 9
21 21 23 23 23 20 16 16 16 15 16 16 15 15 15 14 13 14 14 12 11 11 10 10 10 9 9 9 9 9 9 9 8 8 8 8 8 8 9 9 9 8 8 8
22 22 22 22 21 20 16 16 15 16 16 15 15 14 14 13 13 14 12 11 10 10 10 9 9 9 9 9 8 8 8 8 8 8 8 8 8 8 8 8 8 8 8 8
21 21 21 20 20 18 16 16 17 16 16 14 13 13 12 12 12 11 11 10 10 9 9 9 9 8 8 8 8 7 7 7 7 7 7 7 7 7 7 7 8 8 8 8
20 20 20 19 19 17 15 16 15 14 13 13 12 12 11 11 11 10 10 10 9 9 9 9 8 8 7 7 7 7 7 7 7 7 7 7 7 7 8 8 8 8 8 8
19 18 19 18 17 15 15 15 14 13 12 12 11 11 10 10 10 10 10 9 9 9 8 8 7 7 7 6 6 6 6 6 6 6 6 6 6 6 7 7 8 8 8 8
17 15 17 17 17 16 15 14 13 12 11 11 10 10 10 10 10 9 9 9 9 8 8 7 7 6 6 6 5 5 5 5 5 5 5 5 6 6 6 7 7 8 8 8
17 16 16 16 16 15 15 13 12 11 10 10 10 10 10 9 9 9 9 9 8 8 7 6 6 5 5 5 4 4 4 4 5 5 5 5 5 6 6 7 7 8 8 8
16 16 16 15 14 14 13 12 11 11 10 10 10 9 9 9 9 9 8 8 7 7 6 6 5 5 4 4 4 4 4 4 4 4 4 5 5 5 6 7 7 7 7 7
Wind_Speed
3 4 1 3 2 2 2 4 4 2 3 5 5 5 2 1 4 7 9 10 11 11 9 9 9 9 9 9 9 10 9 8 7 5 5 5 5 5 5 6 5 7 8 8
5 2 3 1 1 3 3 4 5 4 2 7 8 9 6 4 4 5 7 9 10 9 9 8 8 8 8 8 8 8 8 8 8 6 5 4 4 5 6 6 5 7 7 8
3 6 2 2 2 3 3 5 6 8 8 9 10 13 9 6 5 5 6 7 8 9 9 8 8 7 7 6 6 5 6 7 8 7 6 5 5 6 7 7 6 6 7 8
1 2 2 4 3 6 5 3 6 9 11 11 6 12 6 4 6 5 4 4 5 5 5 5 5 4 3 3 3 4 5 7 8 9 9 9 8 8 7 6 6 7 7 8
3 4 6 6 5 6 6 4 8 10 11 12 6 9 1 2 3 4 5 6 6 5 4 5 5 5 4 4 4 4 6 8 8 9 10 10 10 8 7 6 6 8 7 7
4 3 4 5 4 4 3 6 9 9 9 7 1 7 1 7 10 10 11 12 13 13 14 13 13 12 10 9 7 7 7 7 8 9 10 10 10 9 8 8 8 8 7 7
2 2 0 4 7 5 7 11 9 8 6 3 1 6 5 9 10 11 12 14 16 17 16 16 17 16 15 15 13 11 9 7 7 8 9 9 9 8 9 9 8 8 8 7
4 3 3 5 8 11 10 10 10 9 8 6 5 4 7 9 10 12 13 15 16 17 17 17 17 16 15 15 15 14 12 10 8 7 6 6 7 8 8 8 8 8 8 8
6 7 4 2 5 8 8 7 8 11 13 12 7 3 9 9 10 11 12 14 15 15 15 15 15 15 15 15 15 15 14 13 12 10 8 7 7 8 9 9 9 9 8 8
7 11 10 5 5 1 5 6 6 8 9 11 9 9 5 6 6 8 10 12 12 13 13 13 13 13 13 13 13 13 13 13 13 13 11 9 9 9 10 10 11 10 10 10
8 10 11 7 6 7 3 3 5 7 8 11 14 6 6 7 5 6 8 10 11 12 13 12 12 12 12 12 12 12 12 12 13 13 13 13 12 11 11 11 11 12 11 11
5 8 11 10 1 2 5 4 5 7 9 11 14 4 8 7 5 6 8 10 12 13 13 13 12 12 12 12 12 12 12 12 12 12 13 13 13 13 13 13 13 13 13 13
4 7 11 7 4 5 5 5 8 10 12 12 15 2 6 5 5 7 10 13 14 15 15 14 13 12 12 12 12 12 12 13 13 13 13 13 14 14 14 15 15 14 14 14
5 10 12 13 11 8 8 7 8 11 12 13 11 2 4 4 7 10 12 13 14 15 14 13 12 11 10 10 11 11 12 11 12 12 12 11 12 13 14 15 15 15 15 15
3 8 10 11 10 8 7 7 7 8 9 10 9 5 5 8 11 12 13 15 16 16 15 14 14 14 13 13 13 13 13 12 12 12 12 12 12 12 13 14 14 15 15 16
3 7 9 11 6 5 1 6 6 5 7 7 6 2 6 11 12 14 16 18 20 20 19 19 19 19 19 18 18 17 16 16 15 15 15 14 14 13 14 14 15 15 15 15
4 5 8 10 5 9 2 7 8 6 5 7 6 6 12 16 16 17 20 22 22 21 21 22 22 22 22 21 20 20 19 18 18 18 18 17 16 16 15 15 14 14 14 14
5 6 6 10 10 8 6 6 7 7 5 4 5 10 16 20 21 22 23 21 20 23 25 25 24 24 24 23 22 22 21 20 20 19 19 18 17 18 16 15 15 14 13 12
5 5 6 7 11 2 5 5 8 9 12 5 9 18 23 25 26 24 19 21 25 27 26 25 25 26 25 25 24 24 23 22 21 21 20 19 19 19 18 17 16 14 13 12
3 4 6 6 9 6 5 7 9 10 9 4 18 24 26 27 25 23 24 26 27 27 25 26 26 26 26 25 24 24 24 23 22 21 20 19 18 19 19 18 17 15 13 13
8 5 6 8 8 3 5 9 12 11 13 20 23 24 26 26 24 28 30 29 28 28 28 27 27 25 24 24 23 24 24 23 22 21 20 19 19 18 19 18 16 15 14 13
6 6 6 7 7 3 7 11 10 14 19 21 24 25 26 27 28 29 29 29 29 29 28 27 25 24 23 22 22 24 24 23 21 20 20 19 19 18 17 16 15 15 13 13
4 5 6 5 5 3 8 12 14 17 20 23 23 26 27 28 30 31 30 29 28 28 27 25 25 24 22 21 20 23 23 21 21 21 20 19 19 17 17 16 16 14 13 11
2 1 4 5 4 9 15 15 17 19 22 23 24 26 28 30 31 31 29 28 28 28 26 25 26 25 23 22 22 22 22 21 20 20 19 18 17 17 16 14 14 13 11 10
2 2 5 8 9 14 13 19 21 22 22 24 25 26 28 30 31 30 28 28 27 26 26 24 23 24 25 23 21 21 21 20 20 19 18 16 16 16 14 14 12 12 10 7
1 3 6 8 12 16 21 21 22 22 24 25 27 28 28 28 30 30 28 27 27 27 26 25 25 25 24 23 22 21 20 20 19 17 16 14 13 13 12 12 12 13 11 8
Wind_Direction
252 251 57 52 348 358 276 262 255 277 346 314 312 307 297 197 204 201 198 195 198 200 189 191 195 195 192 193 195 199 203 198 202 205 219 228 249 265 274 276 285 285 291 297
223 111 52 54 190 230 251 259 257 247 297 305 298 289 272 241 230 229 223 213 212 206 196 194 190 185 183 180 183 185 192 192 199 198 213 236 272 276 287 290 285 283 293 297
20 49 40 218 196 257 276 295 308 307 305 267 279 270 241 222 232 237 247 247 238 226 214 198 191 182 177 174 182 188 193 196 207 206 216 221 237 256 261 271 276 288 299 299
337 26 320 287 295 296 294 320 304 299 293 293 292 287 258 239 245 255 267 270 266 250 234 210 190 180 192 207 219 223 224 221 217 216 227 237 256 273 293 298 299 301 293 297
322 329 308 301 321 297 317 320 291 295 290 284 259 275 277 98 324 353 17 19 12 16 25 29 27 20 356 328 296 276 261 249 239 234 235 240 251 265 278 287 288 290 294 292
309 293 300 322 311 289 288 267 262 258 265 259 240 289 57 47 16 17 35 38 38 37 38 33 28 23 13 358 343 315 288 270 258 248 245 244 254 262 275 279 289 289 295 296
283 231 230 301 305 283 275 285 286 273 253 264 144 277 66 52 37 38 44 46 46 45 43 39 33 29 22 13 3 349 333 310 291 269 259 253 254 257 259 267 276 284 295 300
295 296 354 337 328 315 300 287 277 289 292 294 254 266 99 80 68 61 58 54 50 47 44 41 37 33 27 23 17 11 3 351 339 318 298 281 270 263 262 258 274 281 288 297
304 307 324 324 315 306 299 282 298 282 276 278 274 145 130 103 77 63 57 51 46 41 38 35 32 28 24 22 19 16 13 9 3 353 336 313 295 282 278 272 262 270 274 282
294 298 307 319 277 218 308 307 280 276 284 283 274 250 196 112 74 60 50 42 34 28 24 22 19 16 14 12 11 10 11 8 4 1 352 339 320 299 285 277 274 273 273 272
293 293 297 292 305 321 276 260 292 283 285 288 289 300 71 86 67 45 36 24 15 8 5 3 3 1 360 360 0 360 359 357 356 355 351 344 336 322 305 289 281 274 268 266
306 295 297 298 304 248 281 302 296 294 291 281 282 294 86 87 66 30 9 3 357 351 347 345 346 346 347 348 347 347 344 344 343 341 338 337 334 332 323 310 297 285 272 263
301 283 289 282 200 202 252 275 288 291 287 281 284 291 100 76 34 7 353 347 342 338 335 332 332 331 334 335 334 332 330 330 329 328 326 326 325 326 324 320 311 297 281 268
276 266 276 293 307 308 287 280 288 286 284 292 303 27 103 26 356 346 338 329 322 318 315 312 310 308 309 310 310 310 311 311 310 310 309 308 310 312 313 313 313 306 291 274
274 270 277 283 291 284 289 309 315 308 314 308 329 13 47 2 338 323 314 310 307 304 300 296 293 293 294 295 294 294 294 292 290 289 289 288 290 294 298 302 306 306 296 279
285 286 290 282 284 276 268 12 349 344 340 335 330 25 8 331 316 305 302 301 300 301 302 302 301 301 301 301 299 298 296 293 288 283 281 280 279 280 283 289 295 298 297 287
296 292 293 297 306 269 220 23 2 355 351 337 330 334 327 318 314 311 309 303 301 304 308 308 306 303 301 299 297 294 293 292 289 285 282 279 276 274 274 277 282 289 296 295
336 317 292 299 298 287 73 42 8 338 306 294 301 316 318 315 314 310 301 304 311 312 308 305 302 301 299 298 296 293 291 290 287 285 282 279 278 276 275 275 276 282 290 294
14 332 311 311 305 126 104 29 356 323 302 276 306 319 320 319 312 305 317 324 313 306 303 301 300 299 298 296 294 292 289 287 284 282 281 280 279 278 276 273 273 277 283 288
8 332 314 321 312 319 70 11 336 301 287 1 325 320 319 318 312 313 321 313 306 305 303 301 299 297 295 294 293 291 288 285 282 281 280 279 278 276 275 272 271 273 276 280
338 336 341 327 314 68 32 343 326 308 323 328 318 316 314 312 307 307 310 309 307 304 301 300 299 297 296 295 293 288 286 283 282 281 279 277 274 272 270 268 264 264 268 274
336 337 344 330 320 34 7 338 333 314 314 314 314 314 312 309 307 307 307 307 306 304 303 303 301 298 298 296 292 287 284 284 282 279 276 274 271 268 269 263 258 258 263 266
358 2 336 334 333 342 328 316 314 314 314 315 315 313 311 309 307 308 308 307 305 304 304 303 301 298 296 293 289 286 286 285 283 278 275 272 268 263 262 261 256 253 252 256
102 336 308 299 298 317 318 316 321 321 317 313 311 310 309 307 307 308 307 306 306 305 305 303 301 298 295 292 288 285 284 282 278 274 272 269 265 260 255 250 248 249 250 251
40 310 306 295 317 317 313 325 325 319 315 312 311 310 309 308 307 308 307 306 306 305 303 301 299 296 294 293 288 284 282 278 275 272 268 264 262 259 256 248 243 248 250 250
68 343 328 321 326 315 315 322 320 317 316 315 314 312 311 309 307 308 307 307 305 304 303 301 298 296 295 293 289 284 279 275 271 267 262 257 254 253 248 242 236 218 230 178
Height
1510 1505 1502 1501 1500 1500 1501 1501 1500 1498 1496 1495 1494 1492 1491 1493 1494 1495 1497 1500 1503 1506 1508 1510 1511 1512 1514 1515 1516 1519 1521 1522 1523 1525 1526 1527 1527 1527 1526 1524 1522 1520 1518 1516
1506 1504 1503 1503 1503 1502 1501 1502 1500 1497 1496 1497 1495 1493 1489 1492 1493 1495 1496 1498 1501 1504 1506 1508 1509 1510 1512 1514 1516 1517 1519 1521 1522 1523 1523 1524 1524 1524 1522 1520 1518 1516 1513 1511
1504 1504 1504 1503 1502 1502 1501 1501 1501 1501 1497 1494 1496 1493 1488 1489 1493 1495 1497 1499 1500 1502 1505 1507 1508 1510 1512 1513 1515 1516 1517 1518 1520 1520 1521 1521 1520 1519 1519 1517 1515 1512 1509 1506
1503 1502 1503 1501 1501 1502 1503 1499 1501 1502 1502 1497 1497 1502 1486 1487 1490 1493 1496 1498 1500 1502 1504 1506 1508 1510 1512 1513 1515 1515 1515 1516 1517 1517 1518 1518 1518 1517 1516 1513 1511 1508 1505 1502
1504 1503 1503 1503 1501 1501 1500 1500 1500 1499 1500 1500 1496 1500 1489 1490 1494 1494 1497 1500 1502 1503 1504 1506 1508 1510 1512 1513 1513 1513 1513 1513 1514 1514 1514 1514 1514 1513 1512 1509 1507 1504 1502 1498
1503 1503 1502 1501 1499 1500 1500 1501 1499 1497 1495 1505 1499 1503 1499 1501 1506 1504 1505 1507 1507 1506 1507 1507 1507 1508 1509 1511 1511 1511 1510 1510 1510 1510 1510 1510 1509 1508 1507 1505 1503 1501 1499 1496
1505 1500 1499 1500 1499 1497 1499 1503 1509 1508 1504 1502 1495 1500 1508 1513 1514 1513 1512 1512 1511 1510 1509 1508 1508 1507 1508 1508 1507 1507 1506 1506 1506 1505 1505 1505 1504 1503 1502 1501 1500 1497 1495 1492
1511 1509 1498 1499 1501 1503 1498 1502 1514 1519 1511 1500 1492 1497 1510 1516 1519 1518 1518 1517 1515 1514 1513 1512 1511 1510 1509 1508 1506 1504 1503 1502 1501 1500 1499 1499 1498 1498 1498 1496 1494 1492 1490 1488
1508 1508 1497 1500 1502 1502 1499 1496 1493 1501 1500 1504 1494 1496 1513 1515 1518 1520 1520 1519 1519 1518 1518 1516 1515 1514 1512 1509 1507 1504 1502 1500 1498 1496 1495 1494 1493 1492 1492 1490 1488 1487 1485 1483
1502 1510 1498 1498 1499 1501 1501 1497 1499 1502 1511 1510 1497 1493 1493 1510 1518 1521 1523 1523 1523 1522 1520 1519 1517 1515 1513 1510 1508 1504 1501 1499 1496 1494 1492 1491 1489 1487 1486 1484 1483 1481 1480 1478
1502 1509 1502 1496 1498 1500 1501 1500 1501 1498 1501 1511 1508 1498 1510 1517 1522 1523 1525 1525 1525 1524 1522 1520 1518 1515 1513 1510 1507 1504 1500 1497 1494 1491 1489 1486 1484 1482 1480 1478 1476 1475 1474 1472
1505 1505 1506 1497 1496 1499 1498 1499 1500 1508 1505 1500 1503 1505 1517 1521 1524 1526 1527 1526 1525 1524 1522 1519 1517 1514 1511 1507 1504 1501 1498 1494 1491 1488 1485 1483 1480 1477 1474 1472 1470 1469 1467 1466
1507 1510 1511 1501 1501 1499 1498 1498 1498 1498 1498 1499 1502 1507 1520 1523 1526 1527 1527 1526 1524 1522 1519 1516 1513 1510 1507 1503 1499 1496 1493 1490 1486 1483 1480 1477 1475 1472 1469 1466 1464 1462 1460 1459
1510 1507 1509 1511 1502 1496 1497 1497 1498 1499 1499 1498 1497 1506 1519 1524 1526 1527 1527 1525 1522 1518 1514 1511 1507 1503 1500 1496 1493 1489 1486 1482 1479 1476 1473 1470 1467 1465 1462 1460 1457 1455 1453 1452
1509 1504 1499 1496 1493 1495 1498 1501 1502 1502 1503 1505 1505 1511 1522 1527 1528 1527 1524 1520 1516 1512 1508 1505 1501 1497 1494 1490 1486 1483 1479 1476 1472 1469 1466 1463 1460 1458 1455 1452 1450 1448 1446 1445
1508 1506 1501 1497 1494 1496 1504 1510 1510 1512 1512 1512 1514 1521 1526 1528 1526 1523 1519 1515 1510 1506 1502 1498 1495 1491 1488 1484 1480 1476 1472 1469 1465 1462 1459 1456 1453 1451 1448 1446 1444 1442 1440 1437
1505 1508 1505 1498 1493 1499 1508 1524 1521 1520 1521 1519 1521 1525 1525 1523 1520 1517 1512 1508 1503 1499 1495 1492 1488 1484 1480 1477 1472 1468 1464 1461 1458 1454 1451 1448 1446 1444 1442 1440 1438 1436 1433 1430
1512 1509 1505 1500 1500 1510 1532 1528 1527 1525 1524 1524 1524 1523 1521 1518 1514 1511 1506 1500 1496 1493 1490 1485 1481 1476 1472 1468 1464 1460 1456 1453 1449 1446 1443 1440 1438 1436 1435 1433 1431 1429 1426 1423
1515 1512 1506 1505 1502 1512 1529 1528 1529 1528 1522 1521 1522 1519 1516 1512 1507 1501 1498 1496 1493 1488 1482 1477 1472 1467 1462 1458 1454 1450 1446 1443 1440 1437 1434 1432 1430 1428 1426 1425 1424 1422 1420 1417
1512 1512 1507 1509 1514 1513 1532 1530 1530 1528 1518 1521 1520 1516 1512 1508 1498 1492 1493 1490 1485 1479 1474 1468 1463 1458 1453 1448 1444 1440 1436 1433 1430 1427 1425 1423 1421 1419 1417 1416 1415 1414 1412 1410
1515 1513 1515 1515 1514 1520 1531 1530 1527 1524 1521 1521 1519 1514 1510 1504 1499 1492 1486 1481 1476 1470 1464 1458 1452 1447 1442 1438 1434 1429 1425 1422 1419 1417 1415 1413 1411 1410 1408 1407 1406 1405 1404 1403
1522 1519 1520 1518 1520 1528 1532 1528 1529 1528 1524 1520 1515 1511 1505 1499 1492 1485 1479 1473 1466 1460 1454 1448 1442 1436 1432 1428 1423 1417 1414 1411 1408 1406 1404 1402 1401 1400 1399 1398 1397 1397 1397 1396
1526 1531 1526 1529 1529 1532 1531 1530 1528 1526 1521 1517 1512 1506 1500 1492 1484 1477 1470 1463 1457 1450 1444 1438 1432 1425 1420 1416 1412 1406 1402 1399 1397 1394 1392 1391 1390 1390 1390 1389 1389 1390 1389 1388
1532 1536 1532 1530 1527 1530 1530 1527 1525 1522 1518 1513 1507 1501 1494 1485 1477 1469 1461 1454 1447 1440 1434 1427 1421 1414 1408 1404 1399 1394 1390 1387 1384 1382 1381 1380 1380 1379 1380 1380 1381 1382 1382 1381
1534 1534 1532 1529 1528 1529 1525 1525 1522 1517 1513 1507 1501 1495 1488 1479 1470 1462 1453 1445 1437 1430 1423 1417 1409 1402 1395 1390 1385 1381 1377 1374 1371 1370 1369 1369 1369 1370 1370 1371 1373 1374 1375 1376
1535 1535 1533 1532 1532 1530 1524 1521 1518 1512 1507 1501 1494 1486 1480 1473 1463 1454 1445 1437 1429 1420 1412 1404 1397 1389 1382 1376 1371 1367 1364 1361 1359 1358 1358 1358 1359 1360 1362 1363 1365 1367 1369 1369